| time (UTC) | temp C | wind direction | speed KPH | gust KPH | rain 1hr cm | rain 24hr cm | rain mn cm | humidity % | barometer mb |
| 20260508043050 | 8 | 180 | 1.6 | 6.4 | 0.00 | 0.00 | 0.00 | 86 | 1002.3 |
| 20260508041556 | 8 | 227 | 0.0 | 6.4 | 0.00 | 0.00 | 0.00 | 86 | 1002.2 |
| 20260508040054 | 8 | 227 | 3.2 | 12.9 | 0.00 | 0.00 | 0.00 | 87 | 1002.3 |
| 20260508034553 | 8 | 227 | 0.0 | 9.7 | 0.00 | 0.00 | 0.00 | 87 | 1002.4 |
| 20260508033047 | 8 | 180 | 0.0 | 4.8 | 0.00 | 0.00 | 0.00 | 87 | 1002.3 |
| 20260508031556 | 8 | 176 | 4.8 | 12.9 | 0.00 | 0.00 | 0.00 | 87 | 1002.2 |
| 20260508030141 | 8 | 235 | 1.6 | 11.3 | 0.00 | 0.00 | 0.00 | 87 | 1002.2 |
| 20260508024541 | 8 | 188 | 4.8 | 17.7 | 0.00 | 0.00 | 0.00 | 88 | 1002.3 |
| 20260508023043 | 8 | 235 | 0.0 | 11.3 | 0.00 | 0.00 | 0.00 | 88 | 1002.6 |
| 20260508021538 | 8 | 286 | 3.2 | 17.7 | 0.00 | 0.00 | 0.00 | 88 | 1002.2 |
| 20260508020035 | 9 | 192 | 0.0 | 9.7 | 0.00 | 0.00 | 0.00 | 88 | 1002.6 |
| 20260508013033 | 9 | 238 | 1.6 | 12.9 | 0.00 | 0.00 | 0.00 | 87 | 1002.6 |
| 20260508011533 | 9 | 144 | 1.6 | 14.5 | 0.00 | 0.00 | 0.00 | 87 | 1002.5 |
| 20260508010039 | 9 | 142 | 0.0 | 19.3 | 0.00 | 0.00 | 0.00 | 88 | 1002.4 |
| 20260508004525 | 10 | 211 | 6.4 | 16.1 | 0.00 | 0.00 | 0.00 | 88 | 1002.3 |
| 20260508003024 | 10 | 207 | 6.4 | 16.1 | 0.00 | 0.00 | 0.00 | 89 | 1002.2 |
| 20260508001531 | 10 | 221 | 6.4 | 14.5 | 0.00 | 0.00 | 0.00 | 89 | 1002.1 |
| 20260508000021 | 10 | 196 | 3.2 | 11.3 | 0.00 | 0.00 | 0.00 | 89 | 1002.0 |
| 20260507234519 | 11 | 211 | 0.0 | 4.8 | 0.00 | 0.00 | 0.00 | 92 | 1001.5 |
| 20260507233015 | 11 | 211 | 0.0 | 4.8 | 0.00 | 0.00 | 0.00 | 89 | 1001.5 |
| 20260507231514 | 11 | 210 | 1.6 | 9.7 | 0.00 | 0.00 | 0.00 | 89 | 1001.4 |
| 20260507230014 | 11 | 209 | 1.6 | 8.0 | 0.00 | 0.00 | 0.00 | 89 | 1001.5 |
| 20260507224512 | 11 | 202 | 1.6 | 6.4 | 0.00 | 0.00 | 0.00 | 89 | 1001.5 |
| 20260507223012 | 11 | 193 | 1.6 | 8.0 | 0.00 | 0.00 | 0.00 | 89 | 1001.5 |
| 20260507221518 | 11 | 200 | 0.0 | 8.0 | 0.00 | 0.00 | 0.00 | 89 | 1001.6 |
| 20260507220013 | 11 | 203 | 1.6 | 8.0 | 0.00 | 0.00 | 0.00 | 89 | 1001.6 |
| 20260507214510 | 11 | 221 | 3.2 | 12.9 | 0.00 | 0.00 | 0.00 | 89 | 1001.5 |
| 20260507213018 | 11 | 222 | 1.6 | 6.4 | 0.00 | 0.00 | 0.00 | 90 | 1001.7 |
| 20260507211509 | 11 | 191 | 0.0 | 8.0 | 0.00 | 0.00 | 0.00 | 89 | 1001.7 |
| 20260507210122 | 11 | 242 | 1.6 | 12.9 | 0.00 | 0.00 | 0.00 | 89 | 1001.8 |
| 20260507204505 | 11 | 232 | 0.0 | 3.2 | 0.00 | 0.00 | 0.00 | 89 | 1001.6 |
| 20260507203013 | 11 | 232 | 0.0 | 4.8 | 0.00 | 0.00 | 0.00 | 89 | 1001.4 |
| 20260507201513 | 11 | 232 | 0.0 | 8.0 | 0.00 | 0.00 | 0.00 | 88 | 1001.7 |
| 20260507200110 | 11 | 247 | 1.6 | 8.0 | 0.00 | 0.00 | 0.00 | 88 | 1002.2 |
| 20260507194557 | 11 | 246 | 3.2 | 11.3 | 0.00 | 0.00 | 0.00 | 88 | 1003.3 |
| 20260507193116 | 12 | 244 | 3.2 | 11.3 | 0.00 | 0.00 | 0.00 | 88 | 1003.6 |
| 20260507191559 | 12 | 246 | 3.2 | 14.5 | 0.00 | 0.00 | 0.00 | 87 | 1003.5 |
| 20260507190051 | 12 | 256 | 0.0 | 14.5 | 0.00 | 0.00 | 0.00 | 87 | 1003.8 |
| 20260507184549 | 12 | 262 | 1.6 | 14.5 | 0.00 | 0.00 | 0.00 | 87 | 1003.8 |
| 20260507183057 | 13 | 275 | 4.8 | 27.4 | 0.00 | 0.00 | 0.00 | 86 | 1004.0 |
| 20260507181545 | 13 | 236 | 1.6 | 11.3 | 0.00 | 0.00 | 0.00 | 85 | 1004.0 |
| 20260507180045 | 14 | 196 | 6.4 | 16.1 | 0.00 | 0.00 | 0.00 | 83 | 1003.8 |
| 20260507174542 | 15 | 194 | 6.4 | 25.7 | 0.00 | 0.00 | 0.00 | 81 | 1003.5 |
| 20260507173103 | 15 | 276 | 6.4 | 20.9 | 0.00 | 0.00 | 0.00 | 80 | 1003.0 |
| 20260507171545 | 15 | 188 | 8.0 | 25.7 | 0.00 | 0.00 | 0.00 | 80 | 1003.5 |
| 20260507170046 | 15 | 341 | 6.4 | 27.4 | 0.00 | 0.00 | 0.00 | 79 | 1003.8 |
| 20260507164539 | 16 | 270 | 6.4 | 19.3 | 0.00 | 0.00 | 0.00 | 77 | 1003.8 |
| 20260507163039 | 16 | 189 | 9.7 | 27.4 | 0.00 | 0.00 | 0.00 | 76 | 1003.9 |
| 20260507161535 | 16 | 200 | 6.4 | 32.2 | 0.00 | 0.00 | 0.00 | 76 | 1004.5 |
| 20260507160055 | 16 | 284 | 12.9 | 29.0 | 0.00 | 0.00 | 0.00 | 74 | 1004.7 |
| 20260507154531 | 17 | 270 | 8.0 | 38.6 | 0.00 | 0.00 | 0.00 | 74 | 1004.8 |
| 20260507153032 | 17 | 250 | 11.3 | 22.5 | 0.00 | 0.00 | 0.00 | 74 | 1005.4 |
| 20260507151526 | 17 | 284 | 9.7 | 22.5 | 0.00 | 0.00 | 0.00 | 74 | 1005.9 |
| 20260507150025 | 16 | 285 | 12.9 | 30.6 | 0.00 | 0.00 | 0.00 | 75 | 1006.0 |
| 20260507144529 | 16 | 297 | 9.7 | 35.4 | 0.00 | 0.00 | 0.00 | 75 | 1006.3 |
| 20260507143019 | 16 | 201 | 6.4 | 30.6 | 0.00 | 0.00 | 0.00 | 75 | 1006.6 |
| 20260507141523 | 16 | 244 | 9.7 | 37.0 | 0.00 | 0.00 | 0.00 | 76 | 1006.7 |
| 20260507140016 | 16 | 261 | 8.0 | 33.8 | 0.00 | 0.00 | 0.00 | 76 | 1006.9 |
| 20260507134515 | 16 | 218 | 8.0 | 40.2 | 0.00 | 0.00 | 0.00 | 76 | 1006.9 |
| 20260507133013 | 16 | 289 | 9.7 | 35.4 | 0.00 | 0.00 | 0.00 | 77 | 1007.3 |
| 20260507131510 | 16 | 269 | 8.0 | 32.2 | 0.00 | 0.00 | 0.00 | 76 | 1007.2 |
| 20260507130017 | 16 | 178 | 11.3 | 25.7 | 0.00 | 0.00 | 0.00 | 76 | 1007.3 |
| 20260507124501 | 15 | 292 | 6.4 | 46.7 | 0.00 | 0.00 | 0.00 | 78 | 1007.6 |
| 20260507123059 | 15 | 227 | 4.8 | 40.2 | 0.00 | 0.00 | 0.00 | 79 | 1007.5 |
| 20260507121558 | 14 | 267 | 4.8 | 22.5 | 0.00 | 0.00 | 0.00 | 80 | 1007.9 |
| 20260507120054 | 13 | 304 | 4.8 | 19.3 | 0.00 | 0.00 | 0.00 | 82 | 1008.1 |
| 20260507114558 | 13 | 224 | 8.0 | 29.0 | 0.00 | 0.00 | 0.00 | 81 | 1008.6 |
| 20260507113052 | 14 | 214 | 8.0 | 27.4 | 0.00 | 0.00 | 0.00 | 80 | 1008.8 |
| 20260507111558 | 13 | 271 | 9.7 | 30.6 | 0.00 | 0.00 | 0.00 | 80 | 1009.6 |
| 20260507110048 | 13 | 183 | 11.3 | 32.2 | 0.00 | 0.00 | 0.00 | 81 | 1009.0 |
| 20260507104545 | 13 | 258 | 6.4 | 22.5 | 0.00 | 0.00 | 0.00 | 82 | 1009.4 |
| 20260507103044 | 13 | 178 | 12.9 | 24.1 | 0.00 | 0.00 | 0.00 | 81 | 1010.0 |
| 20260507101553 | 13 | 270 | 3.2 | 19.3 | 0.00 | 0.00 | 0.00 | 82 | 1009.8 |
| 20260507100042 | 13 | 251 | 3.2 | 20.9 | 0.00 | 0.00 | 0.00 | 82 | 1009.7 |
| 20260507094542 | 13 | 289 | 4.8 | 22.5 | 0.00 | 0.00 | 0.00 | 82 | 1010.2 |
| 20260507093043 | 13 | 209 | 9.7 | 22.5 | 0.00 | 0.00 | 0.00 | 82 | 1011.1 |
| 20260507091538 | 13 | 162 | 3.2 | 14.5 | 0.00 | 0.00 | 0.00 | 83 | 1011.3 |
| 20260507090037 | 13 | 211 | 1.6 | 9.7 | 0.00 | 0.00 | 0.00 | 82 | 1011.1 |
| 20260507084533 | 13 | 231 | 3.2 | 12.9 | 0.00 | 0.00 | 0.00 | 82 | 1010.8 |
| 20260507083033 | 13 | 242 | 0.0 | 12.9 | 0.00 | 0.00 | 0.00 | 82 | 1010.9 |
| 20260507081536 | 13 | 252 | 1.6 | 6.4 | 0.00 | 0.00 | 0.00 | 81 | 1011.3 |
| 20260507080028 | 13 | 232 | 6.4 | 19.3 | 0.00 | 0.00 | 0.00 | 81 | 1011.6 |
| 20260507074526 | 13 | 243 | 4.8 | 14.5 | 0.00 | 0.00 | 0.00 | 81 | 1011.5 |
| 20260507073024 | 13 | 252 | 3.2 | 11.3 | 0.00 | 0.00 | 0.00 | 80 | 1011.8 |
| 20260507071526 | 13 | 253 | 0.0 | 16.1 | 0.00 | 0.00 | 0.00 | 79 | 1012.1 |
| 20260507070020 | 13 | 211 | 3.2 | 14.5 | 0.00 | 0.00 | 0.00 | 78 | 1012.2 |
| 20260507064517 | 14 | 264 | 3.2 | 17.7 | 0.00 | 0.00 | 0.00 | 77 | 1012.1 |
| 20260507063016 | 14 | 253 | 9.7 | 20.9 | 0.00 | 0.00 | 0.00 | 76 | 1012.3 |
| 20260507061515 | 14 | 260 | 4.8 | 16.1 | 0.00 | 0.00 | 0.00 | 75 | 1012.3 |
| 20260507060012 | 13 | 240 | 8.0 | 16.1 | 0.00 | 0.00 | 0.00 | 74 | 1012.3 |
| 20260507054509 | 13 | 264 | 4.8 | 14.5 | 0.00 | 0.00 | 0.00 | 72 | 1012.5 |
| 20260507053009 | 13 | 206 | 6.4 | 16.1 | 0.00 | 0.00 | 0.00 | 72 | 1012.8 |
| 20260507051504 | 13 | 194 | 8.0 | 32.2 | 0.00 | 0.00 | 0.00 | 74 | 1013.1 |
| 20260507050007 | 13 | 193 | 6.4 | 20.9 | 0.00 | 0.00 | 0.00 | 75 | 1013.4 |
| 20260507044559 | 13 | 227 | 8.0 | 22.5 | 0.00 | 0.00 | 0.00 | 75 | 1013.6 |